DW1774 Weather Reports


time (UTC)temp
F
wind
direction
speed
knots
gust
knots
rain 1hr
in
rain 24hr
in
rain mn
in
humidity
%
barometer
mb
20260506072904 77 191 0.9 7.8 0.00 0.00 0.00 86 1009.4
20260506072404 77 173 3.5 7.8 0.00 0.00 0.00 86 1009.5
20260506071904 77 213 2.6 6.1 0.00 0.00 0.00 86 1009.5
20260506071403 77 210 1.7 7.8 0.00 0.00 0.00 86 1009.4
20260506070904 77 191 1.7 7.8 0.00 0.00 0.00 86 1009.5
20260506062404 77 191 2.6 7.0 0.00 0.00 0.00 86 1009.5
20260506061404 77 179 3.5 10.4 0.00 0.00 0.00 85 1009.4
20260506060904 77 166 5.2 10.4 0.00 0.00 0.00 85 1009.3
20260506060404 77 178 1.7 7.0 0.00 0.00 0.00 85 1009.4
20260506051404 78 8 0.9 2.6 0.00 0.00 0.00 85 1009.6
20260506044904 78 137 1.7 6.1 0.00 0.00 0.00 85 1009.7
20260506044403 78 176 3.5 8.7 0.00 0.00 0.00 85 1009.6
20260506043904 78 213 2.6 8.7 0.00 0.00 0.00 85 1009.5
20260506043405 78 174 4.3 7.0 0.00 0.00 0.00 85 1009.4
20260506042905 78 158 2.6 7.8 0.00 0.00 0.00 85 1009.4
20260506042403 78 179 2.6 10.4 0.00 0.00 0.00 84 1009.4
20260506041905 78 180 4.3 12.2 0.00 0.00 0.00 84 1009.5
20260506041404 77 165 3.5 12.2 0.00 0.00 0.00 84 1009.5
20260506040904 78 157 3.5 12.2 0.00 0.00 0.00 84 1009.4
20260506040403 78 175 5.2 11.3 0.00 0.00 0.00 84 1009.2
20260506035903 78 165 4.3 11.3 0.00 0.00 0.00 84 1009.2
20260506035404 78 150 1.7 10.4 0.00 0.00 0.00 84 1009.3
20260506034904 78 159 4.3 12.2 0.00 0.00 0.00 84 1009.4
20260506034404 78 168 5.2 12.2 0.00 0.00 0.00 84 1009.3
20260506033904 78 170 4.3 12.2 0.00 0.00 0.00 84 1009.3
20260506033405 78 175 5.2 13.9 0.00 0.00 0.00 84 1009.2
20260506032904 78 187 6.1 13.9 0.00 0.00 0.00 84 1009.1
20260506032404 78 157 4.3 13.9 0.00 0.00 0.00 84 1009.1
20260506031904 78 175 5.2 12.2 0.00 0.00 0.00 84 1009.2
20260506031405 78 213 4.3 7.0 0.00 0.00 0.00 84 1009.1
20260506030904 78 175 3.5 10.4 0.00 0.00 0.00 84 1009.1
20260506030404 78 187 3.5 10.4 0.00 0.00 0.00 84 1009.1
20260506025904 78 181 3.5 10.4 0.00 0.00 0.00 84 1009.0
20260506024904 78 163 3.5 7.8 0.00 0.00 0.00 84 1008.8
20260506024404 78 167 1.7 7.8 0.00 0.00 0.00 84 1008.9
20260506023905 78 167 2.6 7.8 0.00 0.00 0.00 84 1008.7
20260506023404 78 167 3.5 10.4 0.00 0.00 0.00 84 1008.6
20260506022904 78 173 2.6 10.4 0.00 0.00 0.00 84 1008.6
20260506022404 78 182 2.6 10.4 0.00 0.00 0.00 84 1008.6
20260506021904 78 153 0.9 10.4 0.00 0.00 0.00 83 1008.4
20260506020905 78 160 1.7 11.3 0.00 0.00 0.00 83 1008.3
20260506015905 78 167 2.6 10.4 0.00 0.00 0.00 82 1008.1
20260506015403 78 188 3.5 7.8 0.00 0.00 0.00 82 1008.1
20260506014404 78 188 2.6 10.4 0.00 0.00 0.00 82 1007.9
20260506013903 78 170 3.5 8.7 0.00 0.00 0.00 81 1007.9
20260506013404 78 170 3.5 10.4 0.00 0.00 0.00 81 1007.9
20260506012904 79 172 3.5 10.4 0.00 0.00 0.00 81 1007.8
20260506012405 79 190 3.5 10.4 0.00 0.00 0.00 81 1007.8
20260506011404 79 180 4.3 10.4 0.00 0.00 0.00 81 1007.7
20260506010904 79 201 1.7 10.4 0.00 0.00 0.00 81 1007.5
20260506010404 79 181 4.3 8.7 0.00 0.00 0.00 80 1007.5
20260506005905 79 183 4.3 10.4 0.00 0.00 0.00 80 1007.4
20260506005404 79 176 5.2 10.4 0.00 0.00 0.00 80 1007.4
20260506004904 79 158 4.3 10.4 0.00 0.00 0.00 80 1007.3
20260506004404 79 190 2.6 13.9 0.00 0.00 0.00 80 1007.3
20260506003904 80 175 6.1 13.9 0.00 0.00 0.00 79 1007.3
20260506003404 80 172 3.5 7.8 0.00 0.00 0.00 79 1007.3
20260506002905 80 190 2.6 7.0 0.00 0.00 0.00 79 1007.3
20260506002404 80 184 4.3 7.8 0.00 0.00 0.00 79 1007.3
20260506001903 80 154 2.6 10.4 0.00 0.00 0.00 79 1007.2
20260506001405 80 181 3.5 10.4 0.00 0.00 0.00 79 1007.1
20260506000904 80 193 5.2 11.3 0.00 0.00 0.00 78 1007.1
20260505235904 80 180 5.2 10.4 0.00 0.00 0.00 78 1007.3
20260505234905 80 182 3.5 14.8 0.00 0.00 0.00 78 1007.2
20260505234405 80 182 6.1 14.8 0.00 0.00 0.00 78 1007.2
20260505233404 81 161 2.6 10.4 0.00 0.00 0.00 77 1007.3
20260505232905 81 205 4.3 11.3 0.00 0.00 0.00 77 1007.4
20260505232404 81 178 4.3 15.6 0.00 0.00 0.00 77 1007.3
20260505231404 81 180 5.2 14.8 0.00 0.00 0.00 76 1007.2
20260505230404 81 196 5.2 13.9 0.00 0.00 0.00 76 1007.3
20260505225904 81 198 4.3 13.0 0.00 0.00 0.00 76 1007.4
20260505225404 81 200 5.2 11.3 0.00 0.00 0.00 76 1007.3
20260505224904 81 175 4.3 10.4 0.00 0.00 0.00 76 1007.3
20260505223905 81 173 7.0 12.2 0.00 0.00 0.00 76 1007.3
20260505223405 81 175 6.1 12.2 0.00 0.00 0.00 76 1007.3
20260505222904 81 153 5.2 13.9 0.00 0.00 0.00 77 1007.4
20260505221904 82 197 5.2 14.8 0.00 0.00 0.00 76 1007.4
20260505221405 82 191 6.1 14.8 0.00 0.00 0.00 76 1007.5
20260505220404 82 198 2.6 10.4 0.00 0.00 0.00 76 1007.4
20260505215405 82 207 4.3 12.2 0.00 0.00 0.00 76 1007.6
20260505214904 82 174 7.0 12.2 0.00 0.00 0.00 76 1007.7
20260505214404 82 200 5.2 10.4 0.00 0.00 0.00 76 1007.7
20260505213904 82 156 3.5 11.3 0.00 0.00 0.00 76 1007.8
20260505213404 82 188 6.1 13.0 0.00 0.00 0.00 76 1007.8
20260505211904 82 178 5.2 12.2 0.00 0.00 0.00 76 1007.9
20260505211404 82 186 2.6 17.4 0.00 0.00 0.00 76 1008.0
20260505210904 82 178 6.1 17.4 0.00 0.00 0.00 75 1008.1
20260505210404 83 195 6.1 13.0 0.00 0.00 0.00 75 1008.0
20260505205905 83 198 4.3 10.4 0.00 0.00 0.00 76 1008.0
20260505205404 83 205 4.3 10.4 0.00 0.00 0.00 75 1008.1
20260505204905 83 213 4.3 11.3 0.00 0.00 0.00 75 1008.3
20260505203904 83 185 4.3 13.0 0.00 0.00 0.00 76 1008.4
20260505203405 82 205 5.2 13.0 0.00 0.00 0.00 76 1008.5
20260505202904 82 187 5.2 13.0 0.00 0.00 0.00 76 1008.6
20260505202404 82 161 3.5 13.0 0.00 0.00 0.00 76 1008.6
20260505201405 83 193 4.3 13.0 0.00 0.00 0.00 76 1008.7
20260505195404 83 206 3.5 11.3 0.00 0.00 0.00 77 1008.8
20260505194904 82 181 7.0 11.3 0.00 0.00 0.00 76 1008.8
20260505194405 82 189 5.2 11.3 0.00 0.00 0.00 76 1008.9
20260505193404 82 176 3.5 10.4 0.00 0.00 0.00 78 1009.0
20260505192904 82 198 2.6 6.1 0.00 0.00 0.00 79 1008.9
20260505191904 81 188 1.7 10.4 0.00 0.00 0.00 80 1009.1
20260505191403 81 206 5.2 10.4 0.00 0.00 0.00 79 1009.2
20260505190404 81 192 4.3 10.4 0.00 0.00 0.00 80 1009.2
20260505185904 80 169 4.3 13.0 0.00 0.00 0.00 80 1009.2
20260505185404 80 207 2.6 13.0 0.00 0.00 0.00 80 1009.2
20260505184904 80 184 4.3 8.7 0.00 0.00 0.00 81 1009.2
20260505183904 80 192 4.3 7.8 0.00 0.00 0.00 81 1009.4
20260505183404 80 181 1.7 7.8 0.00 0.00 0.00 81 1009.5
20260505182903 80 184 4.3 10.4 0.00 0.00 0.00 80 1009.5
20260505182405 80 187 3.5 10.4 0.00 0.00 0.00 80 1009.5
20260505181903 81 173 2.6 10.4 0.00 0.00 0.00 79 1009.5
20260505181404 81 163 3.5 10.4 0.00 0.00 0.00 78 1009.5
20260505180904 81 139 2.6 7.8 0.00 0.00 0.00 78 1009.5
20260505180404 81 163 1.7 12.2 0.00 0.00 0.00 79 1009.5
20260505175905 80 193 5.2 12.2 0.00 0.00 0.00 79 1009.6
20260505175404 80 197 6.1 11.3 0.00 0.00 0.00 79 1009.6
20260505174905 80 178 5.2 12.2 0.00 0.00 0.00 79 1009.6
20260505174404 80 196 4.3 12.2 0.00 0.00 0.00 80 1009.7
20260505173905 80 203 4.3 8.7 0.00 0.00 0.00 79 1009.7
20260505173404 80 190 4.3 8.7 0.00 0.00 0.00 79 1009.7
20260505172905 80 172 2.6 8.7 0.00 0.00 0.00 79 1009.7
20260505172405 80 194 2.6 11.3 0.00 0.00 0.00 80 1009.8
20260505171904 80 195 2.6 11.3 0.00 0.00 0.00 80 1009.9
20260505171404 80 180 2.6 10.4 0.00 0.00 0.00 80 1009.9
20260505170904 80 218 2.6 10.4 0.00 0.00 0.00 80 1009.9
20260505170404 79 191 4.3 12.2 0.00 0.00 0.00 80 1010.0
20260505165904 80 190 5.2 12.2 0.00 0.00 0.00 80 1010.0
20260505165404 80 208 4.3 10.4 0.00 0.00 0.00 79 1009.9
20260505164904 80 180 4.3 10.4 0.00 0.00 0.00 79 1009.8
20260505164404 80 205 3.5 8.7 0.00 0.00 0.00 78 1009.8
20260505163405 80 201 1.7 7.0 0.00 0.00 0.00 78 1009.8
20260505162905 80 159 2.6 10.4 0.00 0.00 0.00 79 1009.8
20260505162404 80 209 4.3 10.4 0.00 0.00 0.00 78 1009.8
20260505161906 80 203 1.7 11.3 0.00 0.00 0.00 78 1009.8
20260505161403 80 207 4.3 11.3 0.00 0.00 0.00 78 1009.8
20260505160905 80 217 2.6 8.7 0.00 0.00 0.00 77 1009.8
20260505160404 80 181 2.6 10.4 0.00 0.00 0.00 77 1009.7
20260505152904 80 202 4.3 10.4 0.00 0.00 0.00 76 1009.5
20260505152404 80 191 4.3 10.4 0.00 0.00 0.00 77 1009.5
20260505151904 80 220 4.3 12.2 0.00 0.00 0.00 77 1009.4
20260505151404 80 174 4.3 13.9 0.00 0.00 0.00 77 1009.3
20260505150905 80 182 6.1 13.9 0.00 0.00 0.00 81 1009.3
20260505150404 79 170 4.3 11.3 0.00 0.00 0.00 83 1009.4
20260505140404 77 202 2.6 10.4 0.00 0.00 0.00 82 1009.6
20260505124404 74 168 1.7 6.1 0.00 0.00 0.00 85 1009.3
20260505123904 74 179 2.6 7.0 0.00 0.00 0.00 84 1009.1
20260505122904 74 190 2.6 7.8 0.00 0.00 0.00 85 1008.9
20260505122404 74 183 2.6 7.8 0.00 0.00 0.00 85 1008.8
20260505121904 74 158 3.5 7.8 0.00 0.00 0.00 85 1008.8
20260505121404 74 173 1.7 7.0 0.00 0.00 0.00 85 1008.9
20260505120904 74 179 1.7 7.0 0.00 0.00 0.00 85 1009.1
20260505115904 74 180 1.7 7.0 0.00 0.00 0.00 85 1009.2
20260505115405 74 190 1.7 7.8 0.00 0.00 0.00 85 1009.0
20260505114905 74 230 2.6 8.7 0.00 0.00 0.00 85 1008.9
20260505114404 74 204 2.6 8.7 0.00 0.00 0.00 84 1008.9
20260505113904 74 168 1.7 8.7 0.00 0.00 0.00 84 1008.9
20260505113405 74 172 2.6 8.7 0.00 0.00 0.00 84 1008.8
20260505112905 74 169 2.6 7.0 0.00 0.00 0.00 84 1008.8
20260505111904 74 195 2.6 7.0 0.00 0.00 0.00 84 1008.9
20260505111404 74 200 1.7 4.3 0.00 0.00 0.00 84 1008.9
20260505110904 74 199 1.7 7.8 0.00 0.00 0.00 84 1009.1
20260505110405 74 185 2.6 7.8 0.00 0.00 0.00 84 1009.2
20260505101905 73 147 0.9 4.3 0.00 0.00 0.00 83 1009.0
20260505101405 73 173 0.9 6.1 0.00 0.00 0.00 83 1008.9
20260505100904 73 171 2.6 6.1 0.00 0.00 0.00 83 1008.8
20260505100405 73 193 2.6 6.1 0.00 0.00 0.00 83 1008.7
20260505095904 73 177 1.7 6.1 0.00 0.00 0.00 83 1008.8
20260505095404 73 189 2.6 6.1 0.00 0.00 0.00 83 1008.8
20260505094404 73 183 2.6 7.0 0.00 0.00 0.00 83 1008.9
20260505093905 73 192 1.7 4.3 0.00 0.00 0.00 83 1009.2
20260505093404 73 194 0.9 5.2 0.00 0.00 0.00 83 1009.3
20260505092403 73 185 1.7 4.3 0.00 0.00 0.00 82 1009.2
20260505091905 73 188 1.7 6.1 0.00 0.00 0.00 82 1009.1
20260505091404 73 165 2.6 6.1 0.00 0.00 0.00 82 1009.1
20260505090904 74 186 1.7 5.2 0.00 0.00 0.00 82 1009.2
20260505090405 74 184 1.7 4.3 0.00 0.00 0.00 82 1009.3
20260505085904 74 258 1.7 7.0 0.00 0.00 0.00 82 1009.2
20260505085404 74 158 1.7 7.0 0.00 0.00 0.00 82 1009.2
20260505084905 74 204 1.7 6.1 0.00 0.00 0.00 82 1009.1
20260505084404 74 208 2.6 11.3 0.00 0.00 0.00 82 1009.1
20260505083904 74 198 0.9 11.3 0.00 0.00 0.00 82 1009.1
20260505083404 74 186 1.7 7.0 0.00 0.00 0.00 82 1009.2
20260505082904 74 216 2.6 10.4 0.00 0.00 0.00 82 1009.3
20260505082404 74 195 5.2 10.4 0.00 0.00 0.00 81 1009.2
20260505081904 74 179 1.7 7.0 0.00 0.00 0.00 81 1009.3
20260505081403 73 161 2.6 6.1 0.00 0.00 0.00 82 1009.3
20260505080905 73 189 1.7 6.1 0.00 0.00 0.00 81 1009.4
20260505080404 73 198 2.6 6.1 0.00 0.00 0.00 81 1009.4
20260505075905 73 174 1.7 6.1 0.00 0.00 0.00 82 1009.5
20260505074905 73 159 1.7 8.7 0.00 0.00 0.00 82 1009.6
20260505074405 73 180 2.6 8.7 0.00 0.00 0.00 82 1009.6
20260505073404 73 232 3.5 10.4 0.00 0.00 0.00 82 1009.6